User: anonymous
Location: Charleston
(38.3500°N, 81.6330°W)
Time: 09:27:29
(UTC-04:00)
Language:

Cosmos 2228 - Orbit

View from above orbital plane
View from above orbital plane
View from above satellite
View from above satellite

Ground track
Ground track

The orbit data is extracted from the following two-line orbital elements,

1 22286U 92094A   14258.42598479  .00001259  00000-0  14097-3 0  4190
2 22286 082.5200 241.5818 0020662 212.5689 147.4254 14.85973973173012
Epoch (UTC): 15 September 2014 10:13:25
Eccentricity: 0.0020662
inclination: 82.5200°
perigee height: 596 km
apogee height: 625 km
right ascension of ascending node: 241.5818°
argument of perigee: 212.5689°
revolutions per day: 14.85973973
mean anomaly at epoch: 147.4254°
orbit number at epoch: 17301

The dashed part of the orbit path shows where the satellite is in the earth's shadow,  

DLR